#timestamp,LO_Frequency,Hit,StdDev 
1551027615.5,286046997.3,N
1551027635.4,286046999.3,N
1551027655.2,286047000.0,N
1551027675.0,286046999.9,N
1551027675.9,286046999.9,N
1551027695.8,286047000.0,N
1551027715.6,286047002.3,N
1551027735.5,286047002.1,N
1551027755.3,286047002.6,N
1551027775.1,286047001.9,N
1551027795.9,286047004.3,N
1551027815.7,286047003.5,N
1551027835.5,286047003.2,N
1551027855.4,286047002.1,N
1551027875.2,286047002.2,N
1551027895.1,286047001.6,N
1551027896.0,286047001.6,N
1551027915.8,286047001.3,N
1551027935.6,286047001.9,N
1551027955.5,286047004.4,N
1551027975.3,286047002.5,N
1551027995.1,286047001.7,N
1551028015.9,286047004.4,N
1551028035.7,286047003.9,N
1551028055.6,286047002.2,N
1551028075.4,286047002.1,N
1551028095.2,286047002.4,N
1551028115.1,286047002.8,N
1551028116.0,286047002.8,N
1551028135.8,286047002.8,N
1551028155.6,286047000.1,N
1551028175.5,286047000.6,N
1551028195.3,286046998.2,N
1551028215.2,286047000.8,N
1551028235.9,286046998.2,N
1551028255.7,286046999.5,N
1551028275.6,286047001.0,N
1551028295.4,286047000.6,N
1551028315.2,286047000.4,N
1551028335.1,286047000.7,N
1551028336.0,286047000.7,N
1551028355.8,286046999.9,N
1551028375.7,286047000.0,N
1551028395.5,286047000.8,N
1551028415.3,286047000.6,N
1551028435.2,286046999.1,N
1551028455.0,286046998.8,N
1551028455.9,286046998.8,N
1551028475.8,286046997.0,N
1551028495.6,286046998.3,N
1551028515.4,286047000.4,N
1551028535.3,286047000.2,N
1551028555.1,286047000.2,N
1551028575.9,286047000.8,N
1551028595.7,286046999.9,N
1551028615.5,286047004.3,Y
1551028635.4,286047004.3,P
1551028655.2,286047001.3,N
1551028675.0,286047003.5,N
1551028675.9,286047003.5,N
1551028695.8,286047004.3,N
1551028715.6,286047004.2,N
1551028735.5,286047003.5,N
1551028755.3,286047003.1,N
1551028775.1,286047003.1,N
1551028795.9,286047004.0,Y
1551028815.7,286047000.4,P
1551028835.6,286047000.9,N
1551028855.4,286047000.7,N
1551028875.2,286047000.6,N
1551028895.1,286047000.3,N
1551028896.0,286047000.3,N
1551028915.8,286047000.9,N
1551028935.7,286047000.6,N
1551028955.5,286047000.9,N
1551028975.3,286046998.1,N
1551028995.2,286046997.3,N
1551029015.0,286046994.9,Y
1551029015.9,286046994.9,P
1551029035.8,286046997.9,N
1551029055.6,286046995.1,N
1551029075.4,286046995.2,N
1551029095.3,286046996.1,N
1551029115.1,286046994.9,N
1551029135.9,286046998.9,N
1551029155.7,286046998.7,N
1551029175.5,286046997.0,N
1551029195.4,286046997.0,N
1551029215.2,286046996.6,N
1551029235.0,286046999.6,N
1551029235.9,286046999.6,N
1551029255.8,286046997.4,N
1551029275.6,286046997.6,N
1551029295.5,286046997.2,N
1551029315.3,286046998.1,N
1551029335.1,286046998.5,N
1551029355.9,286046998.6,N
1551029375.7,286047002.7,N
1551029395.6,286047000.8,N
1551029415.4,286047000.1,N
1551029435.2,286046998.9,N
1551029455.1,286047001.0,N
1551029456.0,286047001.0,N
1551029475.8,286047000.6,N
1551029495.7,286047001.2,N
1551029515.5,286047001.0,N
1551029535.3,286047002.7,N
1551029555.2,286046999.4,N
1551029575.0,286046996.6,N
1551029575.9,286046996.6,N
1551029595.7,286046999.5,N
1551029615.6,286046999.0,N
1551029635.4,286046997.5,N
1551029655.3,286046995.1,N
1551029675.1,286046995.7,N
1551029676.0,286046995.7,N
1551029695.8,286046995.1,N
1551029715.7,286046997.4,N
1551029735.5,286046997.4,N
1551029755.4,286046994.9,N
1551029775.2,286046997.6,N
1551029795.0,286046995.3,N
1551029795.9,286046995.3,N
1551029815.8,286046997.0,N
1551029835.6,286046996.6,N
1551029855.4,286046996.6,N
1551029875.3,286046997.7,N
1551029895.1,286046997.3,N
1551029915.9,286046997.7,N
1551029935.7,286046999.3,N
1551029955.5,286047001.1,N
1551029975.4,286047000.3,N
1551029995.2,286047001.0,N
1551030015.0,286046998.7,N
1551030015.9,286046998.7,N
1551030035.8,286046998.4,N
1551030055.6,286046998.7,N
1551030075.5,286046998.6,N
1551030095.3,286047004.4,N
1551030115.1,286047009.8,Y
1551030135.9,286047007.8,P
1551030155.7,286047009.2,N
1551030175.5,286047007.4,N
1551030195.4,286047004.9,N
1551030215.2,286047004.7,N
1551030235.1,286047005.7,N
1551030236.0,286047005.7,N
1551030255.8,286047003.7,N
1551030275.6,286047004.2,N
1551030295.5,286047003.9,N
1551030315.3,286047002.6,N
1551030335.1,286047000.0,N
1551030355.9,286046998.6,N
1551030375.7,286046999.3,N
1551030395.6,286046998.9,N
1551030415.4,286046998.5,N
1551030435.2,286046998.9,N
1551030455.1,286046998.6,N
1551030456.0,286046998.6,N
1551030475.8,286047001.1,N
1551030495.6,286047000.3,N
1551030515.5,286047001.2,N
1551030535.3,286046998.9,N
1551030555.2,286046999.1,N
1551030575.9,286046998.6,N
1551030595.7,286046998.9,N
1551030615.6,286046998.8,N
1551030635.4,286046999.0,N
1551030655.2,286046997.5,N
1551030675.1,286046996.7,N
1551030676.0,286046996.7,N
1551030695.8,286046996.6,N
1551030715.7,286046997.7,N
1551030735.5,286046995.4,N
1551030755.4,286046998.0,N
1551030775.2,286046994.9,N
1551030795.0,286046997.3,N
1551030795.9,286046997.3,N
1551030815.8,286046997.3,N
1551030835.6,286046996.6,N
1551030855.4,286046996.6,N
1551030875.3,286046996.8,N
1551030925.2,286046994.9,E
1551030935.1,286046999.3,N
1551030936.0,286046999.3,P
1551030955.8,286047000.4,P
1551030975.7,286047002.2,Y
1551030995.5,286047002.4,P
1551031015.3,286047000.8,N
1551031035.2,286047002.4,N
1551031055.9,286047002.2,N
1551031075.7,286047004.2,Y
1551031095.6,286047004.2,P
1551031115.4,286047004.1,P
1551031135.3,286047003.5,N
1551031155.1,286047003.1,N
1551031156.0,286047003.1,Y
1551031175.8,286046998.6,P
1551031195.7,286046996.7,N
